Dewpoint
44 44 43 42 43 44 43 42 45 46 46 46 46 46 47 48 48 48 48 48 48 48 48 49 50 50 47 35 32 26 57 56 27 18 12 18 17 17 16 16 17 18 39 41 38 39 40
44 44 44 44 44 43 41 42 42 43 45 46 46 46 46 46 47 47 48 48 48 48 48 48 50 50 43 17 17 27 37 21 18 13 14 19 16 16 17 16 16 36 39 36 36 37 38
41 42 42 41 41 42 42 44 44 42 42 42 43 44 43 44 44 45 46 46 46 47 47 48 50 47 41 23 30 30 28 22 17 14 15 17 14 12 17 30 36 34 33 33 33 35 38
42 42 42 42 42 41 42 42 42 41 44 43 42 41 40 41 42 43 44 45 46 46 49 50 50 46 26 27 33 30 24 21 19 16 14 12 17 19 23 32 32 32 33 33 32 32 34
43 41 42 42 41 40 41 42 41 40 43 43 42 42 42 41 42 43 44 46 46 48 50 50 45 38 15 31 29 30 21 17 17 13 12 13 22 20 24 30 30 29 32 30 30 31 30
41 44 41 41 42 41 41 41 40 40 41 43 43 42 42 42 44 44 44 46 47 48 48 47 40 28 18 10 24 28 26 21 18 12 13 17 21 18 21 29 27 26 29 27 30 31 30
40 41 42 42 41 41 40 42 41 38 41 41 41 40 41 43 44 44 43 42 39 36 40 23 19 25 23 27 25 21 23 21 13 10 7 18 15 15 16 27 28 29 29 30 30 30 29
42 41 41 42 42 41 41 40 39 39 39 41 40 39 41 42 44 44 40 40 39 40 37 39 39 38 35 31 23 17 15 15 13 7 14 15 12 15 18 24 27 29 29 28 28 29 29
40 40 41 41 40 40 40 39 40 39 39 40 40 40 41 43 43 37 36 41 38 40 38 37 40 35 31 28 21 19 14 13 11 9 14 13 12 18 18 19 26 27 28 27 28 28 28
38 37 38 40 41 40 40 39 39 39 40 40 41 41 42 43 35 35 37 39 34 42 28 21 36 35 25 24 20 19 15 12 12 9 12 11 13 17 18 17 25 23 26 28 27 27 25
37 39 37 37 38 39 38 39 39 39 39 40 40 41 42 42 36 33 37 33 35 31 -3 11 33 32 25 13 14 15 12 12 10 11 15 11 13 14 15 17 24 23 28 28 28 26 26
36 39 39 37 37 38 38 39 39 38 38 40 40 41 43 38 35 35 35 35 39 13 -7 8 23 29 19 15 13 13 12 12 13 13 16 11 15 14 14 16 22 25 27 28 28 26 23
36 36 36 39 35 39 39 38 37 38 38 39 40 42 40 39 32 35 37 38 20 7 14 20 21 19 19 14 11 12 10 9 9 8 10 10 10 13 16 14 21 24 24 23 22 22 21
37 38 37 38 36 37 38 37 38 39 38 39 42 42 37 37 36 35 35 35 8 10 18 25 25 25 17 12 10 11 10 8 9 9 8 10 10 11 16 16 17 23 22 24 20 22 24
35 36 35 36 36 37 38 38 39 38 38 40 40 34 34 36 35 35 36 26 15 20 24 22 24 20 11 11 10 10 13 9 8 13 9 14 12 18 16 20 18 21 22 26 25 24 23
37 34 38 38 36 35 37 37 38 38 38 40 33 29 32 37 37 42 32 21 25 27 24 23 24 24 22 17 11 10 12 15 14 16 23 21 13 16 17 25 23 24 26 23 24 18 18
36 36 37 36 36 35 37 37 37 37 39 39 28 25 33 36 39 35 18 23 25 26 27 23 23 23 25 23 23 12 11 13 16 14 16 18 20 17 20 20 23 24 24 27 25 24 20
35 35 35 37 35 34 36 36 37 36 39 35 29 17 31 42 31 28 21 28 32 28 29 27 25 27 24 22 24 22 14 14 20 16 10 17 22 17 16 21 23 26 26 26 24 16 23
34 35 35 36 35 34 35 35 36 36 39 34 27 24 30 39 19 20 25 28 33 30 28 28 25 25 25 18 23 25 25 27 28 19 17 21 18 19 16 18 20 22 26 26 27 26 23
36 35 36 36 36 34 36 36 36 36 38 31 24 15 23 31 30 24 23 24 27 28 30 28 29 28 27 25 26 25 26 30 33 28 37 27 19 16 16 16 19 19 26 26 24 23 23
35 34 35 36 35 35 35 35 35 35 38 29 22 17 28 16 23 25 24 24 23 23 24 31 31 29 29 27 26 25 27 28 30 33 32 23 17 18 17 19 19 18 23 25 22 23 21
34 34 33 35 35 35 35 34 35 35 38 30 25 25 26 23 24 23 23 21 22 21 21 26 23 26 28 28 30 28 28 27 27 29 28 27 16 20 17 20 20 18 21 25 23 24 22
35 33 32 35 35 34 34 34 35 34 36 32 33 28 29 21 21 20 21 22 20 24 24 25 25 31 28 29 26 28 31 30 30 29 27 26 23 22 17 22 20 18 19 26 26 25 24
35 33 32 35 34 36 36 35 35 34 36 33 33 32 25 17 22 22 21 23 19 23 23 26 30 29 28 27 31 32 32 31 32 31 31 26 24 24 20 21 15 18 22 27 24 26 24
35 33 32 34 34 37 38 37 36 35 33 34 35 33 26 19 21 19 22 19 22 23 24 26 29 27 28 33 29 25 26 28 28 28 28 30 26 24 23 20 19 18 21 20 20 18 27
36 34 32 33 34 35 38 37 37 36 35 34 34 37 32 24 18 23 20 24 21 20 22 25 27 28 31 32 29 18 17 22 23 23 30 30 29 25 23 19 14 19 21 23 20 18 21
37 34 32 32 33 34 37 38 38 39 37 34 32 37 33 25 23 26 22 22 23 25 23 24 22 26 29 26 23 24 23 27 24 20 27 28 26 23 19 16 18 20 24 23 19 19 22
35 33 33 32 32 33 35 37 36 38 38 34 29 35 32 25 25 26 26 24 25 23 18 20 19 25 23 22 22 23 24 25 24 24 24 28 28 24 24 19 13 26 21 19 24 25 24
34 32 33 33 32 33 34 35 37 37 38 36 30 33 36 30 24 27 28 28 27 26 24 24 18 20 25 19 23 22 23 28 26 23 26 26 30 28 26 25 29 30 30 33 30 26 25
Lifted_Index
17 17 17 17 17 16 17 17 17 16 16 15 15 15 15 14 14 14 14 14 14 14 14 14 13 13 12 11 11 10 9 9 11 11 11 10 9 8 7 6 5 4 2 -0 -1 -2 -2
17 17 17 16 16 16 17 17 17 16 16 16 16 16 15 15 15 14 14 14 14 14 14 14 13 13 12 11 11 11 10 11 11 12 11 10 9 8 7 6 5 4 2 0 -1 -2 -2
17 17 16 16 16 16 16 16 16 17 16 16 16 16 16 16 16 15 15 15 15 14 14 13 12 12 11 11 11 11 10 11 12 12 11 11 10 9 8 6 5 3 2 0 -0 -1 -1
17 17 16 16 16 16 16 16 16 16 16 16 17 17 17 17 17 16 16 15 14 13 12 12 12 11 11 11 11 10 10 10 11 12 11 11 10 9 8 6 5 4 2 1 1 0 -0
16 16 16 15 15 16 16 16 16 16 16 16 16 16 17 17 17 17 16 15 13 12 11 11 12 11 10 10 10 10 10 10 11 11 11 11 10 9 7 6 5 4 3 3 2 1 0
16 15 15 15 15 15 15 15 16 16 16 15 16 16 16 16 16 16 14 13 12 11 11 11 11 11 10 10 10 10 10 10 10 10 10 10 9 8 7 6 4 4 3 3 2 1 1
15 15 15 14 14 14 15 15 15 16 16 15 16 16 16 16 16 15 12 11 11 11 11 11 10 10 10 9 9 9 9 10 10 9 8 8 7 6 6 6 5 4 3 2 2 1 1
15 15 14 14 14 14 14 14 15 15 15 15 15 16 16 16 15 14 11 10 10 11 10 10 10 10 10 9 8 8 9 9 8 7 7 6 6 6 6 6 5 4 3 2 1 1 0
15 15 14 14 14 14 14 14 14 14 14 14 15 15 15 15 14 12 10 10 10 10 9 9 9 9 9 9 8 8 8 8 7 6 6 5 5 6 6 6 5 4 3 2 1 1 0
15 15 15 14 14 14 14 14 14 13 13 13 13 13 13 13 13 12 10 9 9 8 8 8 8 8 9 9 8 8 8 7 6 5 5 5 5 5 6 6 5 4 3 2 1 1 1
15 14 14 14 14 14 13 13 13 13 12 12 12 12 12 12 12 11 9 8 7 6 5 6 7 8 8 9 8 8 7 7 6 5 5 5 5 5 5 5 5 4 3 2 1 1 2
14 14 14 14 14 13 13 13 12 12 11 11 11 10 10 11 11 10 8 6 6 5 5 6 7 7 7 8 8 7 7 7 6 5 5 5 5 5 5 5 4 3 2 2 2 2 2
14 14 14 14 13 13 12 12 11 11 10 10 10 9 9 9 10 8 6 5 4 4 5 5 6 6 6 7 7 6 6 6 5 5 4 4 5 5 5 5 4 3 2 2 1 2 2
14 13 13 13 12 12 11 10 10 10 9 9 9 8 7 8 8 7 5 4 4 4 5 5 5 5 5 6 6 6 5 5 5 4 3 3 4 5 5 5 4 4 3 2 1 2 2
13 13 12 12 11 10 10 9 9 9 9 9 9 8 7 7 7 6 5 4 4 4 4 4 3 3 4 4 5 6 5 5 5 5 4 3 3 4 5 4 4 4 4 3 2 2 2
13 12 11 10 10 9 9 9 9 9 9 9 9 7 6 6 6 5 5 5 4 4 3 2 2 2 2 3 4 5 5 5 5 5 5 4 3 3 4 4 4 4 3 3 2 2 1
12 11 10 9 9 9 9 9 9 9 9 9 8 7 6 5 5 5 5 5 4 4 3 2 2 1 2 2 3 4 5 6 5 5 5 4 3 3 3 3 3 3 3 2 2 2 1
11 10 9 9 9 9 9 9 9 9 9 9 8 7 6 5 5 5 5 5 4 4 4 3 2 2 1 2 3 4 5 5 5 5 4 4 3 3 3 3 3 2 2 2 2 2 2
10 10 9 9 9 9 9 9 9 9 9 9 8 7 7 6 5 5 5 4 4 4 4 4 3 2 2 1 2 3 3 4 4 4 4 4 3 2 2 2 2 2 1 1 1 1 1
10 10 9 9 9 9 9 9 9 9 8 9 8 7 7 7 6 5 5 4 4 4 4 3 3 3 2 1 2 2 2 3 4 4 3 3 3 2 2 2 2 2 1 1 1 1 1
10 10 9 9 9 9 9 9 9 9 9 9 9 8 8 7 7 6 5 5 4 4 4 3 3 3 2 2 2 1 2 2 3 3 3 3 3 3 2 2 2 2 1 1 1 1 1
10 10 10 10 9 9 9 9 9 9 9 9 9 9 8 8 8 7 7 6 5 5 4 4 3 3 3 2 2 2 2 2 2 2 2 2 2 2 2 2 2 2 2 2 2 2 2
10 10 10 10 9 9 9 9 9 9 9 9 9 9 9 8 8 8 8 7 7 6 5 5 4 4 3 3 3 3 3 2 2 2 1 1 2 2 2 2 2 2 2 2 2 2 2
10 10 10 10 10 9 9 8 8 9 9 9 9 9 9 8 8 8 8 8 8 7 7 6 5 5 4 3 3 3 3 3 2 2 1 1 1 1 2 2 2 2 3 2 2 2 2
10 10 11 10 10 9 8 8 8 8 9 9 9 9 9 8 8 8 8 8 8 8 7 6 6 6 5 4 3 3 3 3 2 2 1 1 1 1 1 1 2 2 2 2 2 2 2
10 10 10 10 10 9 8 7 7 7 8 8 9 9 8 8 8 8 8 8 8 8 8 7 7 6 4 3 2 2 2 2 2 1 1 1 0 0 0 1 1 2 2 1 1 2 2
10 10 10 10 10 9 8 7 7 6 6 7 8 8 8 7 7 7 7 8 8 8 7 7 7 5 4 3 2 2 2 2 2 2 1 1 0 0 0 0 1 1 1 1 1 1 1
10 10 10 10 9 9 8 7 6 5 5 5 6 6 6 6 6 6 6 6 7 7 7 7 6 5 4 3 2 2 1 1 2 2 2 1 1 0 0 0 0 0 0 0 1 1 1
10 10 10 9 9 8 7 6 5 4 4 4 5 5 5 5 5 6 6 6 6 6 6 6 6 6 5 4 3 2 1 1 1 2 2 2 1 1 0 0 0 0 -0 0 1 1 1